www.pogodaiklimat.ru

Погода и климат >> Архив погоды >> Мозамбик >> Quelimane


ПОГОДА в Quelimane

  • Прогноз погоды в Quelimane
  • Монитор погоды в Quelimane
  • Климат города

АРХИВ ПОГОДЫ в Quelimane

Время (UTC), дата Ветер
(напр.,м/с)
 
Видим.   Явления Облачность Т
(С)
Тd
(С)
f
(%)
Тe
(С)
Тes
(С)
Комфортность P
(гПа)
Po
(гПа)
Тmin
(С)
Tmax
(С)
R
(мм)
R24
(мм)
S
(см)
12 11.12 ЮВ 5 30 км 6/4 600 м
[Cu med, cong Ac trans Ci fib]
+30.2 +22.0 62 +39 +43 очень
душно
1012.4 1012.0
15 11.12 ЮВ 5 30 км 8/3 600 м
[Cu med, cong Ac trans Ci]
+28.6 +21.1 64 +36 +36 очень
душно
1013.3 1013.0
18 11.12 В 3 30 км 8/1 600 м
[Cu hum Ac trans Ci]
+26.6 +21.2 72 +34 +34 очень
душно
1014.9 1015.0 +31.3
21 11.12 В 2 30 км 4/3 600 м
[Cu med, cong Ac trans]
+26.0 +22.1 79 +34 +34 очень
душно
1014.3 1014.0
00 12.12 С 2 30 км 3/3 600 м
[Cu med, cong]
+25.8 +22.2 81 +34 +34 очень
душно
1012.7 1013.0
03 12.12 В 1 30 км 8/1 600 м
[Cu med, cong Ac trans Ci fib]
+24.6 +22.8 90 +33 +33 очень
душно
1012.6 1013.0
06 12.12 В 3 30 км 8/5 300 м
[Cu med, cong Ac trans Ci fib]
+27.8 +23.1 76 +37 +40 очень
душно
1014.0 1014.0 +24.6
09 12.12 В 5 30 км 9/6 600 м
[Cu med, cong Ac trans]
+31.2 +23.1 62 +41 +44 опасность
перегрева
1012.9 1013.0
12 12.12 В 6 30 км 9/8 600 м
[Cu med, cong Ac trans]
+31.0 +23.8 66 +43 +43 опасность
перегрева
1010.9 1011.0
15 12.12 В 5 9000 м слабый дождь {морось} 9/8 600 м
[Cu med, cong Ac trans]
+27.0 +24.4 86 +38 +38 очень
душно
1010.4 1010.0
18 12.12 В 4 30 км {дождь, морось} 9/8 600 м
[Cu med, cong Ac trans]
+27.0 +24.7 87 +38 +38 очень
душно
1012.2 1012.0 +32.0 5
21 12.12 В 3 25 км в посл. час морось 9/8 300 м
[Cu med, cong Ac As]
+26.8 +26.0 95 +40 +40 очень
душно
1012.0 1012.0
00 13.12 В 3 30 км {морось} 10/9 300 м
[Cu med, cong Ac As]
+26.4 +20.3 69 +33 +33 очень
душно
1011.7 1012.0 1
03 13.12 В 2 30 км 9/5 600 м
[Cu med, cong Ac und]
+26.0 +24.6 92 +37 +37 очень
душно
1011.4 1011.0
06 13.12 СВ 3 30 км 8/4 600 м
[Cu med, cong Ac und]
+28.0 +25.2 85 +41 +43 опасность
перегрева
1011.9 1012.0 +25.5 6
21 13.12 В 4 25 км 8/5 600 м
[Cu med, cong Ac trans]
+27.2 +22.2 74 +35 +35 очень
душно
1011.1 1011.0
00 14.12 СВ 1 30 км 3/3 600 м
[Cu med, cong Ac trans]
+25.2 +22.2 83 +33 +33 очень
душно
1010.0 1010.0
03 14.12 СВ 3 30 км 8/6 600 м
[Cu med, cong Ac trans]
+25.2 +23.7 91 +34 +34 очень
душно
1010.0 1010.0
06 14.12 СВ 4 30 км 5/3 600 м
[Cu med, cong Ac trans]
+29.8 +25.0 75 +43 +46 опасность
перегрева
1010.1 1010.0 +24.8
15 14.12 В 4 30 км 8/4 600 м
[Cb calv Ac trans Ci fib]
+34.8 +24.4 55 +47 +48 опасность
перегрева
1005.6 1006.0
18 14.12 В 4 30 км 8/3 600 м
[Cu med, cong Ac trans Ci fib]
+30.9 +26.3 77 +47 +47 опасность
перегрева
1008.0 1008.0 +39.0
21 14.12 СВ 8 3000 м сильная гроза, ливневой дождь 9/8 600 м
[Cb cap Ac trans]
+29.6 +24.5 74 +42 +42 опасность
перегрева
1010.2 1010.0
00 15.12 С 3 7000 м гроза, ливневой дождь 10/8 600 м
[Cb cap Ac trans]
+27.2 +24.3 84 +38 +38 очень
душно
1011.2 1011.0 26
03 15.12 ЮЗ 6 6000 м ливневой дождь, в посл. час гроза 10/8 600 м
[Cb cap Ac trans]
+25.4 +23.4 89 +34 +34 очень
душно
1012.8 1013.0
06 15.12 ЮЗ 1 25 км слабый дождь {гроза} 10/9 600 м
[Sc diur, vesp Ac trans]
+23.2 +22.6 96 +32 +32 очень
душно
1014.1 1014.0 +22.5 78
09 15.12 Ю 3 9000 м слабая морось {дождь} 10/6 300 м
[Cu med, cong Ac trans]
+24.2 +23.0 93 +32 +35 очень
душно
1016.3 1016.0
12 15.12 ЮЗ 4 30 км {дождь, морось} 9/6 600 м
[Cu med, cong Ac trans]
+26.2 +23.9 87 +36 +38 очень
душно
1013.8 1014.0 2
15 15.12 Ю 2 10 км слабый ливневой дождь {морось} 8/6 200 м
[Sc diur, vesp Ac trans]
+26.0 +23.4 86 +35 +36 очень
душно
1014.1 1014.0
18 15.12 ЮЗ 2 30 км {ливн. осадки, морось} 8/4 600 м
[Cu med, cong Ac trans]
+25.2 +24.0 93 +35 +35 очень
душно
1015.2 1015.0 +31.0 4
21 15.12 З 2 30 км 6/4 600 м
[Cu med, cong Ac trans]
+23.8 +22.6 93 +31 +31 очень
душно
1015.8 1016.0
00 16.12 Ю 4 30 км {ливн. осадки} 8/3 200 м
[Sc Ac As]
+24.0 +23.1 95 +32 +32 очень
душно
1014.8 1015.0 7
03 16.12 В 2 5000 м слабый дождь 10/8 300 м
[Sc diur, vesp Ac As]
+23.8 +22.9 95 +32 +32 очень
душно
1014.8 1015.0
06 16.12 Ю 3 2000 м дождь 10/8 300 м
[Cu med, cong Ac inh]
+24.4 +23.8 96 +33 +34 очень
душно
1016.2 1016.0 +23.5 70
09 16.12 ЮВ 4 9000 м слабая морось {дождь} 10/10 200 м
[Frnb]
+25.8 +24.1 90 +36 +36 очень
душно
1016.1 1016.0
03 17.12 ЮЗ 2 30 км 6/4 600 м
[Cu med, cong Ac trans Ci fib]
+22.4 +21.2 93 +29 +29 очень
душно
1014.5 1015.0
06 17.12 Ю 3 30 км 6/4 600 м
[Cu med, cong Ac trans Ci fib]
+26.6 +23.1 81 +36 +40 очень
душно
1015.3 1015.0 +22.4 23
09 17.12 Ю 2 30 км 8/6 600 м
[Cu med, cong Ac trans]
+29.0 +21.9 66 +37 +43 очень
душно
1014.5 1015.0
12 17.12 ЮВ 4 30 км 8/6 600 м
[Cu med, cong Ac trans]
+29.6 +22.9 67 +39 +42 очень
душно
1012.5 1013.0
15 17.12 ЮВ 6 30 км 1/1 600 м
[Cu med, cong Ac trans]
+28.2 +22.3 70 +37 +37 очень
душно
1011.7 1012.0
18 17.12 ЮВ 3 30 км 1/1 600 м
[Cu hum Ac trans]
+26.2 +22.7 81 +35 +35 очень
душно
1013.4 1013.0 +30.6
21 17.12 В 1 30 км 4/4 600 м
[Cu med, cong]
+25.6 +23.0 86 +34 +34 очень
душно
1013.8 1014.0
00 18.12 СЗ 1 30 км 4/4 600 м
[Cu med, cong]
+24.6 +23.1 91 +33 +33 очень
душно
1012.0 1012.0
03 18.12 З 1 30 км 8/6 300 м
[Cu med, cong Ac trans]
+24.2 +23.0 93 +32 +32 очень
душно
1013.3 1013.0

 

Местоположение метеостанции Quelimane (Мозамбик): широта -17.88 долгота 36.88 высота над уровнем моря 16 м.

В архиве по умолчанию представлена погода в Quelimane за последнюю неделю. Архивные данные за месяц целиком и за предыдущие месяцы, начиная с января 2011 года, Вы можете получить, выбрав интересующий диапазон дат из раскрывающегося списка и нажав кнопку "Ввод!".

Внимание! Время в таблицах - всемирное. Для получения местного времени необходимо прибавить поправку, которая в Quelimane равна 2 ч.

Смотрите также архив погоды в соседних городах и на ближайших метеорологических станциях:

Погода в Pebane (Мозамбик) (151 км)
Погода в Caia (Мозамбик) (164 км)
Погода в Beira (Мозамбик) (298 км)
Погода в Chichiri (Малави) (306 км)
Погода в Chileka (Малави) (318 км)
Погода в Cuamba (Мозамбик) (341 км)
Погода в Angoche (Мозамбик) (370 км)
Погода в Chimoio (Мозамбик) (385 км)
Погода в Catandica (Мозамбик) (393 км)
Погода в Tete Chingodze (Мозамбик) (396 км)

Пояснения к столбцам:

Ветер - указаны скорость ветра в м/с - средняя за 10 мин, порывы в срок и между сроками (в фигурных скобках) и направление, откуда дует ветер: С - северный, СВ - северо-восточный, В - восточный, ЮВ - юго-восточный, Ю - южный, ЮЗ - юго-западный, З - западный, СЗ - северо-западный.
Видимость - горизонтальная дальность видимости в метрах или километрах. При видимости от 1 до 10 км при отсутствии осадков обычно наблюдается дымка, при ухудшении видимости до 1 км и менее - туман. В сухую погоду видимость может ухудшаться дымом, пылью или мглою.
Явления - указаны атмосферные явления, наблюдавшиеся в срок или в последний час перед сроком; фигурными скобками обозначены явления, наблюдавшиеся между сроками (за 1-3 часа до срока); квадратными скобками обозначены град или гололедные отложения с указанием их диаметра в мм.
Облачность - указаны через наклонную черту общая и нижняя облачность в баллах и высота нижней границы облаков в метрах; квадратными скобками обозначены формы облаков: Ci - перистые, Cs - перисто-слоистые, Cc - перисто-кучевые, Ac - высококучевые, As - высокослоистые, Sc - слоисто-кучевые, Ns - слоисто-дождевые, Cu - кучевые, Cb - кучево-дождевые. Подробнее классификацию облаков см. в Атласе облаков (PDF).
T - Температура воздуха - температура, измеренная на высоте 2 м над землей.
Td - Температура точки росы - температура, при понижении до которой содержащийся в воздухе водяной пар достигнет насыщения.
f - Относительная влажность воздуха - влажноcть воздуха, измеренная на высоте 2 м над землей.
Te - Эффективная температура - температура, которую ощущает одетый по сезону человек в тени. Характеристика душности погоды. При расчете учитывается влияние влажности воздуха и скорости ветра на теплоощущения человека.
Tes - Эффективная температура на солнце - температура, которую ощущает человек, с поправкой на солнечный нагрев. Характеристика знойности погоды. Зависит от высоты солнца над горизонтом, облачности и скорости ветра. Ночью, в пасмурную погоду, а также при ветре 12 м/с и более поправка равна нулю.
P - Атмосферное давление - приведенное к уровню моря атмосферное давление.
Po - Атмосферное давление - измеренное на уровне метеостанции атмосферное давление.
Tmin - Минимальная температура - минимум температуры воздуха на высоте 2 м над землей.
Tmax - Максимальная температура - максимум температуры воздуха на высоте 2 м над землей.
R - Количество осадков - Количество выпавших осадков за период времени, мм. При наведении курсора мыши на число - период времени, за который выпало указанное количество осадков.
R24 - Количество осадков - Количество выпавших осадков за 24 часа, мм.
S - Снежный покров - Высота снежного покрова, см. При наведении курсора мыши на число - состояние снежного покрова и степень покрытия местности в баллах.